RH
30 36 36 34 31 42 50 74 83 86 85 86 89 88 86 87 90 87 84 83 80 91 84 85 88 86 82 88 91 87 88 85
35 42 45 44 46 49 58 81 88 92 92 95 96 96 91 86 89 76 82 88 84 75 68 61 57 55 55 56 58 68 68 77
37 44 46 49 53 57 71 81 86 89 90 91 88 81 71 55 48 50 50 50 52 46 50 45 48 44 50 51 51 46 41 44
35 48 49 52 57 67 72 82 89 85 81 77 66 65 50 53 42 41 47 47 49 51 48 48 49 48 43 48 48 50 46 41
29 43 54 56 62 67 70 75 68 63 59 53 50 38 43 38 38 37 34 42 40 40 44 43 45 42 45 44 36 44 45 43
32 43 51 56 59 61 58 48 43 46 43 52 47 47 36 34 35 38 39 38 38 36 41 44 46 43 44 51 53 52 46 46
33 38 47 51 49 49 47 40 38 39 39 37 38 40 34 28 30 31 30 33 35 39 41 46 49 49 50 48 53 56 56 55
36 36 37 41 45 46 41 35 36 38 38 35 36 37 36 34 32 33 38 35 35 37 42 50 47 49 51 53 56 59 60 60
38 36 35 36 42 40 36 33 33 33 34 35 35 34 29 30 34 36 37 37 38 43 50 51 53 55 57 59 58 59 63 65
38 37 36 36 39 40 38 32 30 31 34 37 38 38 38 35 41 44 40 44 40 47 54 58 59 60 61 64 62 65 67 70
38 37 40 36 36 39 39 32 30 31 34 35 34 37 39 42 46 48 49 52 54 59 61 62 65 69 72 74 76 74 76 70
40 40 37 35 35 36 38 32 31 34 35 37 41 42 46 48 50 50 53 60 61 63 66 70 69 69 68 70 70 72 78 73
38 41 38 36 37 36 36 36 34 35 34 39 48 51 50 52 54 56 61 63 62 62 62 64 66 68 71 78 83 81 83 86
39 38 38 39 35 35 34 35 34 36 38 46 53 55 55 56 58 60 61 65 67 69 70 73 76 80 81 85 83 80 80 81
38 37 38 36 34 36 43 34 38 40 47 48 53 58 59 60 62 65 68 69 74 74 74 79 84 78 74 78 84 86 86 84
37 38 37 34 34 37 31 36 42 47 50 53 61 62 62 64 70 73 72 74 73 75 82 87 83 82 81 84 83 82 84 84
33 33 32 32 32 31 30 36 47 54 54 68 61 65 68 72 75 76 80 78 79 88 87 87 82 81 88 90 87 86 84 83
31 32 32 32 30 28 32 36 50 50 59 97 86 75 100 91 79 78 83 89 89 95 86 90 90 89 87 84 90 88 84 87
29 32 35 33 27 26 31 39 45 51 51 56 80 78 100 100 100 100 100 100 100 100 100 100 99 100 89 87 92 97 98 100
Wind_Speed
6 7 6 8 9 12 14 12 15 14 10 8 6 6 6 5 4 4 5 5 7 6 5 4 2 3 4 3 5 6 7 8
8 8 7 7 8 11 12 14 14 10 9 9 6 5 6 6 5 6 6 3 3 4 3 3 3 4 5 6 7 8 7 7
12 10 9 9 9 11 13 13 14 8 8 7 4 6 5 7 6 7 6 5 5 4 4 3 4 6 8 9 10 9 10 8
16 13 12 10 11 12 13 13 12 10 10 8 8 7 7 5 6 6 5 4 3 3 5 5 7 7 8 10 11 13 12 11
15 14 12 12 12 12 13 13 13 12 9 10 10 8 7 5 5 4 3 2 4 5 6 7 8 8 10 11 11 12 13 14
17 16 14 13 14 14 15 17 15 12 13 10 6 8 7 6 4 2 2 3 5 6 7 8 9 8 10 12 13 13 12 13
17 16 16 16 16 15 15 17 16 15 13 11 11 10 7 5 3 1 3 4 5 7 8 9 10 11 12 12 13 15 14 15
20 21 19 18 19 17 15 16 15 14 13 11 9 8 6 4 2 2 4 5 6 8 9 10 10 12 13 14 14 15 16 15
22 22 20 20 20 18 17 17 15 13 12 10 8 7 4 2 2 3 4 6 7 10 10 11 13 13 13 13 12 13 16 14
23 23 21 21 20 19 18 17 16 14 11 9 7 6 4 1 3 5 5 8 8 10 11 13 13 14 15 15 13 15 14 15
21 22 21 20 20 18 17 16 15 13 11 8 6 5 3 2 4 6 8 9 10 11 12 13 14 14 15 15 13 14 15 13
22 21 21 21 19 18 16 16 15 12 9 8 6 4 1 3 5 6 8 9 10 10 10 12 14 14 15 15 17 19 18 18
21 21 23 21 20 18 17 13 13 11 8 6 5 3 2 5 6 7 8 9 9 10 11 12 14 14 15 16 15 14 16 17
21 22 22 21 20 18 16 14 12 10 8 6 4 1 3 6 7 8 8 9 10 11 12 13 14 14 14 14 15 15 15 16
21 21 21 20 18 17 14 13 11 10 7 5 3 1 4 6 7 7 8 8 10 11 12 12 13 13 14 15 13 13 15 15
23 22 21 20 18 16 14 12 10 9 7 5 2 2 4 5 6 7 8 8 9 10 11 12 12 11 9 12 14 15 16 16
23 23 23 21 19 17 15 13 11 9 6 4 1 2 4 5 6 7 7 9 9 9 10 11 11 8 12 16 16 14 16 15
26 26 23 20 19 16 15 13 11 7 6 5 1 4 1 5 6 7 8 8 8 9 10 9 10 10 12 17 18 14 14 15
23 20 18 18 18 15 14 12 10 7 5 6 6 1 1 2 4 6 6 6 7 7 7 7 9 7 13 17 20 13 11 12
Wind_Direction
223 238 216 191 185 188 178 168 172 164 155 147 149 155 161 164 176 196 196 196 199 213 231 250 274 249 246 260 263 260 248 266
220 232 211 181 170 170 167 169 165 159 157 153 150 151 158 147 168 142 110 83 156 176 208 247 272 272 299 293 281 275 271 272
209 210 207 191 168 169 166 166 163 164 145 129 122 131 126 113 109 104 93 87 62 40 5 334 323 307 294 294 292 291 281 264
198 198 201 187 177 168 171 150 138 125 127 108 108 98 123 129 139 125 92 76 37 350 327 316 305 297 290 291 286 286 284 279
194 194 186 187 169 158 148 138 120 124 131 136 143 149 137 134 130 114 116 41 343 329 314 309 302 296 287 281 276 279 280 276
192 188 176 165 153 152 143 136 130 128 133 130 129 113 133 142 125 103 17 316 316 309 299 300 293 289 288 288 285 280 275 273
186 176 163 157 150 146 145 143 136 135 133 135 132 134 128 126 109 322 294 300 296 292 295 294 294 292 287 288 286 280 275 273
179 175 172 162 156 152 149 146 138 134 129 124 118 118 119 135 172 279 304 291 288 291 297 292 290 292 290 286 283 278 275 273
185 177 174 167 163 161 157 151 141 139 133 129 128 133 134 154 201 286 284 289 289 299 294 291 291 293 291 290 290 287 284 277
184 178 176 172 168 165 164 153 148 147 139 137 139 141 156 221 270 283 288 293 294 296 298 297 297 293 290 293 286 285 282 283
183 180 178 175 172 163 162 158 153 146 144 147 148 157 178 272 300 299 299 297 296 302 302 305 306 300 292 285 281 276 277 276
182 180 178 175 168 166 163 159 150 151 150 146 156 157 201 301 300 299 300 303 302 304 302 292 290 295 289 289 291 292 287 286
182 177 174 174 169 166 161 157 155 154 149 154 151 143 295 298 301 305 305 292 297 298 297 293 293 297 302 297 289 287 287 284
180 179 179 174 170 167 161 160 156 150 155 162 156 194 298 306 307 302 304 312 315 311 308 302 301 298 297 291 287 294 292 288
182 180 180 176 170 163 164 159 155 154 157 162 176 261 308 314 306 309 311 315 310 307 306 302 300 295 297 301 299 296 291 283
185 182 177 174 167 160 162 153 156 153 155 171 180 331 323 306 304 309 311 315 308 306 304 298 294 294 297 303 301 297 290 285
186 183 178 171 165 162 159 156 154 159 159 134 41 312 290 313 310 316 318 311 311 309 297 289 297 302 299 299 298 299 294 290
186 185 175 167 164 161 161 160 146 152 138 120 144 264 208 319 318 317 313 306 306 293 293 301 301 302 309 309 315 304 301 304
184 175 162 158 154 161 148 153 140 147 168 181 192 273 222 241 282 285 282 285 278 280 285 298 306 299 315 328 319 300 311 302